BTK6674 WIII-WAQQ

Flight info

Callsign BTK6674
Flight time N/A
Altitude 35000
Route EGUKO W15 BPN W18 SOSVO
Aircraft B738/M-SDE2E3FGHIRWXY/LB1

Departure

Time 2026-04-30 21:06
Airport Soekarno-Hatta International Airport (WIII)

Arrival

Time N/A
Airport Juwata International Airport / Suharnoko Harbani AFB (WAQQ)
Time Latitude Longitude Altitude Speed Heading
2026-04-30 20:41 -6.12332 106.64846 37 ft 0 kts 113°
2026-04-30 20:51 -6.12326 106.64831 37 ft 4 kts 111°
2026-04-30 20:51 -6.12318 106.64799 34 ft 4 kts 162°
2026-04-30 20:51 -6.12338 106.64788 35 ft 4 kts 217°
2026-04-30 20:52 -6.12359 106.64774 37 ft 4 kts 202°
2026-04-30 20:52 -6.12374 106.64782 37 ft 0 kts 341°
2026-04-30 20:55 -6.12373 106.64781 37 ft 1 kts 340°
2026-04-30 20:56 -6.12323 106.64765 37 ft 7 kts 350°
2026-04-30 20:56 -6.12260 106.64766 37 ft 7 kts 354°
2026-04-30 20:56 -6.12187 106.64737 35 ft 7 kts 338°
2026-04-30 20:57 -6.12135 106.64716 37 ft 9 kts 338°
2026-04-30 20:57 -6.12074 106.64690 36 ft 10 kts 338°
2026-04-30 20:57 -6.11982 106.64679 36 ft 11 kts 30°
2026-04-30 20:58 -6.11925 106.64793 37 ft 12 kts 68°
2026-04-30 20:58 -6.11893 106.64873 37 ft 13 kts 68°
2026-04-30 20:58 -6.11859 106.64959 38 ft 14 kts 68°
2026-04-30 20:58 -6.11822 106.65051 36 ft 15 kts 68°
2026-04-30 20:59 -6.11744 106.65246 37 ft 15 kts 68°
2026-04-30 20:59 -6.11706 106.65340 37 ft 14 kts 68°
2026-04-30 21:00 -6.11634 106.65519 36 ft 14 kts 69°
2026-04-30 21:00 -6.11568 106.65689 36 ft 13 kts 68°
2026-04-30 21:01 -6.11502 106.65856 35 ft 13 kts 68°
2026-04-30 21:01 -6.11468 106.65938 34 ft 13 kts 68°
2026-04-30 21:01 -6.11403 106.66098 37 ft 12 kts 68°
2026-04-30 21:02 -6.11372 106.66176 36 ft 12 kts 68°
2026-04-30 21:02 -6.11340 106.66258 37 ft 13 kts 69°
2026-04-30 21:02 -6.11309 106.66340 35 ft 12 kts 69°
2026-04-30 21:02 -6.11278 106.66421 37 ft 13 kts 67°
2026-04-30 21:03 -6.11243 106.66504 37 ft 14 kts 67°
2026-04-30 21:03 -6.11205 106.66596 37 ft 15 kts 67°
2026-04-30 21:03 -6.11165 106.66694 36 ft 16 kts 68°
2026-04-30 21:03 -6.11123 106.66796 37 ft 16 kts 68°
2026-04-30 21:04 -6.11080 106.66901 37 ft 16 kts 68°
2026-04-30 21:04 -6.11033 106.66971 36 ft 12 kts 24°
2026-04-30 21:04 -6.10909 106.66890 35 ft 8 kts 319°
2026-04-30 21:05 -6.10902 106.66872 35 ft 3 kts 269°
2026-04-30 21:05 -6.10909 106.66853 33 ft 4 kts 249°
2026-04-30 21:05 -6.10943 106.66765 35 ft 37 kts 249°
2026-04-30 21:05 -6.11123 106.66319 37 ft 100 kts 248°
2026-04-30 21:06 -6.11449 106.65501 36 ft 150 kts 248°
2026-04-30 21:06 -6.11890 106.64419 241 ft 175 kts 247°
2026-04-30 21:06 -6.12351 106.63316 943 ft 169 kts 247°
2026-04-30 21:06 -6.12779 106.62199 1538 ft 172 kts 249°
2026-04-30 21:07 -6.12847 106.60958 1822 ft 195 kts 291°
2026-04-30 21:07 -6.12146 106.59709 2039 ft 217 kts 297°
2026-04-30 21:07 -6.11456 106.58289 2189 ft 236 kts 293°
2026-04-30 21:07 -6.10556 106.56841 2329 ft 259 kts 319°
2026-04-30 21:08 -6.08884 106.56110 2691 ft 271 kts 356°
2026-04-30 21:08 -6.07079 106.56481 3245 ft 272 kts 32°
2026-04-30 21:08 -6.05703 106.57780 3893 ft 269 kts 55°
2026-04-30 21:08 -6.04661 106.59359 4471 ft 273 kts 60°
2026-04-30 21:09 -6.03690 106.61019 5057 ft 278 kts 62°
2026-04-30 21:09 -6.02736 106.62690 5670 ft 281 kts 62°
2026-04-30 21:09 -6.01743 106.64421 6304 ft 285 kts 61°
2026-04-30 21:09 -6.00742 106.66150 6960 ft 287 kts 61°
2026-04-30 21:10 -5.99744 106.67864 7594 ft 290 kts 60°
2026-04-30 21:10 -5.98713 106.69619 8192 ft 294 kts 60°
2026-04-30 21:10 -5.97663 106.71396 8809 ft 297 kts 60°
2026-04-30 21:10 -5.96603 106.73183 9448 ft 299 kts 60°
2026-04-30 21:11 -5.95529 106.74988 10088 ft 302 kts 60°
2026-04-30 21:11 -5.94428 106.76836 10431 ft 318 kts 60°
2026-04-30 21:11 -5.93257 106.78799 10575 ft 338 kts 60°
2026-04-30 21:11 -5.92017 106.80874 10780 ft 354 kts 60°
2026-04-30 21:12 -5.90736 106.83015 11251 ft 360 kts 60°
2026-04-30 21:12 -5.89442 106.85175 11878 ft 362 kts 60°
2026-04-30 21:12 -5.88145 106.87339 12532 ft 363 kts 60°
2026-04-30 21:12 -5.86841 106.89516 13173 ft 364 kts 60°
2026-04-30 21:13 -5.85531 106.91701 13784 ft 366 kts 59°
2026-04-30 21:13 -5.84217 106.93894 14448 ft 367 kts 59°
2026-04-30 21:13 -5.82894 106.96102 15042 ft 370 kts 59°
2026-04-30 21:13 -5.81565 106.98318 15652 ft 372 kts 59°
2026-04-30 21:14 -5.80227 107.00551 16215 ft 374 kts 59°
2026-04-30 21:14 -5.78880 107.02799 16777 ft 377 kts 59°
2026-04-30 21:14 -5.77527 107.05054 17361 ft 378 kts 59°
2026-04-30 21:14 -5.76167 107.07322 17918 ft 380 kts 59°
2026-04-30 21:15 -5.74802 107.09598 18450 ft 382 kts 59°
2026-04-30 21:15 -5.73425 107.11891 18926 ft 385 kts 58°
2026-04-30 21:15 -5.72070 107.14185 19399 ft 386 kts 60°
2026-04-30 21:15 -5.70692 107.16518 19797 ft 393 kts 59°
2026-04-30 21:16 -5.69309 107.18867 20245 ft 391 kts 59°
2026-04-30 21:16 -5.67859 107.21205 20550 ft 397 kts 59°
2026-04-30 21:16 -5.66413 107.23575 20953 ft 400 kts 59°
2026-04-30 21:16 -5.64968 107.25970 21369 ft 402 kts 59°
2026-04-30 21:17 -5.63523 107.28379 21788 ft 404 kts 59°
2026-04-30 21:17 -5.62069 107.30804 22185 ft 406 kts 59°
2026-04-30 21:17 -5.60609 107.33241 22524 ft 409 kts 59°
2026-04-30 21:17 -5.59134 107.35702 22843 ft 413 kts 59°
2026-04-30 21:18 -5.57650 107.38178 23188 ft 415 kts 59°
2026-04-30 21:18 -5.56157 107.40666 23510 ft 417 kts 59°
2026-04-30 21:18 -5.54656 107.43167 23830 ft 420 kts 59°
2026-04-30 21:18 -5.53146 107.45679 24153 ft 422 kts 59°
2026-04-30 21:19 -5.51629 107.48204 24457 ft 424 kts 59°
2026-04-30 21:19 -5.50101 107.50746 24737 ft 426 kts 59°
2026-04-30 21:19 -5.48567 107.53298 25029 ft 428 kts 59°
2026-04-30 21:19 -5.47007 107.55852 25306 ft 431 kts 59°
2026-04-30 21:20 -5.45470 107.58435 25518 ft 432 kts 59°
2026-04-30 21:20 -5.43907 107.61026 25711 ft 436 kts 60°
2026-04-30 21:20 -5.42352 107.63644 26025 ft 437 kts 60°
2026-04-30 21:20 -5.40789 107.66258 26347 ft 438 kts 60°
2026-04-30 21:21 -5.39212 107.68880 26572 ft 440 kts 59°
2026-04-30 21:21 -5.37621 107.71520 26792 ft 443 kts 59°
2026-04-30 21:21 -5.34420 107.76831 27257 ft 447 kts 59°
2026-04-30 21:22 -5.32809 107.79504 27470 ft 449 kts 60°
2026-04-30 21:22 -5.27936 107.87599 28136 ft 455 kts 60°
2026-04-30 21:23 -5.26298 107.90320 28353 ft 456 kts 60°
2026-04-30 21:23 -5.24677 107.93013 28571 ft 458 kts 60°
2026-04-30 21:23 -5.21376 107.98494 28976 ft 461 kts 60°
2026-04-30 21:24 -5.19716 108.01251 29159 ft 462 kts 60°
2026-04-30 21:24 -5.18050 108.04018 29337 ft 464 kts 59°
2026-04-30 21:24 -5.16374 108.06798 29499 ft 466 kts 60°
2026-04-30 21:24 -5.14696 108.09584 29686 ft 468 kts 60°
2026-04-30 21:25 -5.11324 108.15180 30055 ft 470 kts 60°
2026-04-30 21:25 -5.09631 108.17988 30224 ft 471 kts 60°
2026-04-30 21:25 -5.07934 108.20803 30446 ft 471 kts 60°
2026-04-30 21:26 -5.04553 108.26412 31016 ft 468 kts 60°
2026-04-30 21:26 -5.02868 108.29205 31240 ft 468 kts 59°
2026-04-30 21:27 -4.99494 108.34799 31712 ft 468 kts 59°
2026-04-30 21:27 -4.97812 108.37588 31991 ft 467 kts 59°
2026-04-30 21:27 -4.96133 108.40371 32262 ft 466 kts 59°
2026-04-30 21:28 -4.92780 108.45928 32753 ft 465 kts 59°
2026-04-30 21:28 -4.91107 108.48699 33016 ft 465 kts 59°
2026-04-30 21:28 -4.87765 108.54235 33526 ft 463 kts 60°
2026-04-30 21:29 -4.86100 108.56994 33755 ft 463 kts 60°
2026-04-30 21:29 -4.81109 108.65260 34545 ft 460 kts 59°
2026-04-30 21:30 -4.77798 108.70744 34862 ft 461 kts 59°
2026-04-30 21:31 -4.69729 108.84475 34879 ft 455 kts 64°
2026-04-30 21:32 -4.65707 108.93069 34878 ft 453 kts 66°
2026-04-30 21:32 -4.63044 108.98788 34881 ft 453 kts 65°
2026-04-30 21:33 -4.58982 109.07353 34884 ft 454 kts 65°
2026-04-30 21:34 -4.56252 109.13078 34880 ft 456 kts 65°
2026-04-30 21:34 -4.52136 109.21704 34880 ft 458 kts 65°
2026-04-30 21:35 -4.49380 109.27482 34880 ft 460 kts 65°
2026-04-30 21:35 -4.46617 109.33279 34879 ft 461 kts 65°
2026-04-30 21:36 -4.43845 109.39082 34880 ft 462 kts 65°
2026-04-30 21:37 -4.38297 109.50702 34881 ft 462 kts 65°
2026-04-30 21:37 -4.35524 109.56510 34880 ft 462 kts 65°
2026-04-30 21:38 -4.32748 109.62320 34880 ft 462 kts 65°
2026-04-30 21:38 -4.29979 109.68115 34880 ft 461 kts 65°
2026-04-30 21:39 -4.27212 109.73908 34879 ft 461 kts 65°
2026-04-30 21:39 -4.24461 109.79662 34877 ft 460 kts 65°
2026-04-30 21:40 -4.21695 109.85447 34880 ft 460 kts 65°
2026-04-30 21:40 -4.18929 109.91228 34880 ft 460 kts 65°
2026-04-30 21:41 -4.16162 109.97016 34882 ft 461 kts 65°
2026-04-30 21:41 -4.13395 110.02802 34884 ft 461 kts 65°
2026-04-30 21:42 -4.10626 110.08588 34889 ft 461 kts 65°
2026-04-30 21:42 -4.07856 110.14368 34899 ft 460 kts 65°
2026-04-30 21:43 -4.05556 110.19175 34899 ft 461 kts 65°
2026-04-30 21:43 -4.02318 110.25937 34899 ft 461 kts 65°
2026-04-30 21:44 -3.99548 110.31723 34898 ft 461 kts 65°
2026-04-30 21:44 -3.96777 110.37511 34900 ft 461 kts 65°
2026-04-30 21:45 -3.94472 110.42322 34896 ft 461 kts 65°
2026-04-30 21:45 -3.91701 110.48114 34889 ft 461 kts 65°
2026-04-30 21:46 -3.88461 110.54886 34891 ft 461 kts 65°
2026-04-30 21:46 -3.85707 110.60641 34888 ft 461 kts 65°
2026-04-30 21:47 -3.83383 110.65495 34891 ft 461 kts 65°
2026-04-30 21:47 -3.80161 110.72224 34888 ft 461 kts 65°
2026-04-30 21:48 -3.77839 110.77074 34888 ft 461 kts 65°
2026-04-30 21:48 -3.75072 110.82853 34889 ft 460 kts 65°
2026-04-30 21:49 -3.72321 110.88597 34889 ft 460 kts 65°
2026-04-30 21:49 -3.69554 110.94373 34889 ft 460 kts 65°
2026-04-30 21:50 -3.66784 111.00156 34888 ft 460 kts 65°
2026-04-30 21:50 -3.64016 111.05930 34889 ft 460 kts 65°
2026-04-30 21:51 -3.61245 111.11711 34887 ft 461 kts 64°
2026-04-30 21:51 -3.58474 111.17491 34887 ft 461 kts 64°
2026-04-30 21:52 -3.55698 111.23278 34891 ft 461 kts 64°
2026-04-30 21:52 -3.52923 111.29064 34889 ft 461 kts 64°
2026-04-30 21:53 -3.50143 111.34858 34890 ft 462 kts 64°
2026-04-30 21:53 -3.47363 111.40653 34889 ft 462 kts 64°
2026-04-30 21:54 -3.44583 111.46446 34888 ft 462 kts 64°
2026-04-30 21:54 -3.41818 111.52207 34892 ft 462 kts 64°
2026-04-30 21:55 -3.39032 111.58004 34895 ft 461 kts 64°
2026-04-30 21:55 -3.36265 111.63804 34898 ft 462 kts 64°
2026-04-30 21:56 -3.33471 111.69609 34887 ft 463 kts 64°
2026-04-30 21:56 -3.30674 111.75414 34888 ft 463 kts 64°
2026-04-30 21:57 -3.27883 111.81220 34890 ft 463 kts 64°
2026-04-30 21:57 -3.25093 111.87028 34889 ft 463 kts 64°
2026-04-30 21:58 -3.22303 111.92832 34889 ft 463 kts 64°
2026-04-30 21:58 -3.19517 111.98628 34887 ft 462 kts 64°
2026-04-30 21:59 -3.16732 112.04423 34888 ft 462 kts 64°
2026-04-30 22:00 -3.12569 112.13059 34877 ft 459 kts 64°
2026-04-30 22:00 -3.08419 112.21714 34892 ft 461 kts 64°
2026-04-30 22:01 -3.05636 112.27498 34890 ft 462 kts 64°
2026-04-30 22:01 -3.02847 112.33291 34887 ft 463 kts 64°
2026-04-30 22:02 -3.00053 112.39097 34891 ft 463 kts 64°
2026-04-30 22:02 -2.97252 112.44910 34890 ft 464 kts 64°
2026-04-30 22:03 -2.94448 112.50729 34889 ft 465 kts 64°
2026-04-30 22:03 -2.91644 112.56550 34888 ft 465 kts 64°
2026-04-30 22:04 -2.88840 112.62369 34889 ft 464 kts 64°
2026-04-30 22:05 -2.84644 112.71082 34888 ft 463 kts 64°
2026-04-30 22:05 -2.81847 112.76886 34889 ft 463 kts 64°
2026-04-30 22:06 -2.79054 112.82679 34888 ft 462 kts 64°
2026-04-30 22:06 -2.74871 112.91358 34889 ft 462 kts 64°
2026-04-30 22:07 -2.72081 112.97143 34889 ft 462 kts 64°
2026-04-30 22:07 -2.69291 113.02927 34883 ft 461 kts 64°
2026-04-30 22:08 -2.66505 113.08706 34890 ft 461 kts 64°
2026-04-30 22:08 -2.63717 113.14487 34889 ft 462 kts 64°
2026-04-30 22:09 -2.60929 113.20268 34888 ft 461 kts 64°
2026-04-30 22:09 -2.58137 113.26052 34888 ft 462 kts 64°
2026-04-30 22:10 -2.55344 113.31839 34890 ft 462 kts 64°
2026-04-30 22:10 -2.52570 113.37590 34889 ft 462 kts 64°
2026-04-30 22:11 -2.48378 113.46274 34887 ft 462 kts 64°
2026-04-30 22:12 -2.45582 113.52064 34891 ft 463 kts 64°
2026-04-30 22:12 -2.42784 113.57860 34886 ft 462 kts 64°
2026-04-30 22:13 -2.39989 113.63650 34890 ft 462 kts 64°
2026-04-30 22:13 -2.37194 113.69440 34895 ft 462 kts 64°
2026-04-30 22:14 -2.34398 113.75226 34907 ft 462 kts 64°
2026-04-30 22:14 -2.31603 113.81015 34908 ft 462 kts 64°
2026-04-30 22:15 -2.28807 113.86803 34910 ft 462 kts 64°
2026-04-30 22:15 -2.26009 113.92597 34907 ft 463 kts 64°
2026-04-30 22:16 -2.23456 113.98503 34914 ft 463 kts 70°
2026-04-30 22:17 -2.19344 114.10695 34908 ft 463 kts 71°
2026-04-30 22:17 -2.16165 114.19821 34907 ft 463 kts 70°
2026-04-30 22:18 -2.12983 114.28943 34907 ft 463 kts 71°
2026-04-30 22:19 -2.09865 114.38087 34907 ft 463 kts 71°
2026-04-30 22:20 -2.06765 114.47191 34907 ft 463 kts 71°
2026-04-30 22:20 -2.03649 114.56323 34909 ft 463 kts 71°
2026-04-30 22:21 -2.01570 114.62406 34907 ft 462 kts 71°
2026-04-30 22:21 -1.99492 114.68489 34907 ft 462 kts 71°
2026-04-30 22:22 -1.97417 114.74562 34907 ft 461 kts 71°
2026-04-30 22:22 -1.95344 114.80627 34910 ft 461 kts 71°
2026-04-30 22:23 -1.93272 114.86693 34921 ft 461 kts 71°
2026-04-30 22:23 -1.91202 114.92748 34915 ft 460 kts 71°
2026-04-30 22:24 -1.89135 114.98797 34918 ft 459 kts 71°
2026-04-30 22:24 -1.87072 115.04831 34912 ft 459 kts 71°
2026-04-30 22:25 -1.85010 115.10862 34919 ft 458 kts 71°
2026-04-30 22:25 -1.82959 115.16857 34919 ft 458 kts 71°
2026-04-30 22:26 -1.79872 115.25891 34917 ft 458 kts 71°
2026-04-30 22:27 -1.77813 115.31910 34916 ft 458 kts 71°
2026-04-30 22:27 -1.74789 115.40966 34915 ft 458 kts 72°
2026-04-30 22:28 -1.71835 115.50042 34916 ft 458 kts 72°
2026-04-30 22:29 -1.67880 115.62127 34915 ft 458 kts 72°
2026-04-30 22:31 -1.60949 115.83257 34917 ft 457 kts 72°
2026-04-30 22:32 -1.56014 115.98307 34916 ft 455 kts 72°
2026-04-30 22:33 -1.51417 116.12316 34917 ft 455 kts 72°
2026-04-30 22:35 -1.46491 116.27327 34919 ft 455 kts 72°
2026-04-30 22:36 -1.41557 116.42359 34917 ft 455 kts 72°
2026-04-30 22:37 -1.37603 116.54402 34918 ft 456 kts 72°
2026-04-30 22:38 -1.33646 116.66452 34919 ft 456 kts 72°
2026-04-30 22:39 -1.30679 116.75488 34918 ft 456 kts 72°
2026-04-30 22:40 -1.23132 116.92617 34920 ft 457 kts 37°
2026-04-30 22:41 -1.14184 116.95605 34921 ft 460 kts
2026-04-30 22:41 -1.07823 116.96385 34918 ft 461 kts
2026-04-30 22:43 -0.88699 116.98881 34915 ft 463 kts
2026-04-30 22:44 -0.75915 117.00625 34918 ft 464 kts
2026-04-30 22:45 -0.56696 117.03245 34910 ft 465 kts
2026-04-30 22:47 -0.37454 117.05864 34907 ft 465 kts
2026-04-30 22:48 -0.24686 117.07602 34911 ft 464 kts
2026-04-30 22:49 -0.05505 117.10213 34907 ft 463 kts
2026-04-30 22:51 0.13685 117.12826 34913 ft 465 kts
2026-04-30 22:52 0.23299 117.14134 34907 ft 465 kts
2026-04-30 22:53 0.36135 117.15883 34910 ft 466 kts
2026-04-30 22:53 0.45781 117.17194 34908 ft 466 kts
2026-04-30 22:55 0.61806 117.19363 34917 ft 466 kts
2026-04-30 22:56 0.74655 117.21105 34914 ft 466 kts
2026-04-30 22:57 0.90732 117.23282 34920 ft 467 kts
2026-04-30 22:58 1.03611 117.25025 34918 ft 467 kts
2026-04-30 22:59 1.23438 117.27714 34381 ft 473 kts